Regional Weather Roundup
Issued by NWS

Home | Current Version | Previous Version | Text Only | Print | Product List | Glossary On
Versions: 1 2 3 4 5 6 7 8 9 10 11 12 13 14 15 16 17 18 19 20 21 22 23 24 25 26 27
000
ASUS45 KTFX 211410
RWRMT
MONTANA REGIONAL WEATHER ROUNDUP
NATIONAL WEATHER SERVICE GREAT FALLS MT
800 AM MDT SAT OCT 21 2017

NOTE: "FAIR" INDICATES FEW OR NO CLOUDS BELOW 12000 FEET WITH NO
SIGNIFICANT WEATHER AND/OR OBSTRUCTIONS TO VISIBILITY.

MTZ001>007-043-211500-
WEST OF THE DIVIDE

CITY           SKY/WX    TMP DP  RH WIND       PRES   REMARKS
KALISPELL      CLOUDY    39  32  76 S8        29.94R
MISSOULA       MOCLDY    37  32  82 SE5       30.00R
BUTTE          CLOUDY    33  22  63 SW6       29.97R WCI  28
MULLAN PASS    CLOUDY    25  22  88 VRB7      29.91F WCI  17
ANACONDA         N/A     30  21  69 SE6       29.97S WCI  24
DEER LODGE       N/A     34  28  80 CALM      29.98R
EUREKA           N/A     41  30  65 MISG      29.91R
LIBBY            N/A     39  32  75 S5        29.94S
$$

MTZ008-052>055-211500-
SOUTHWEST MONTANA

CITY           SKY/WX    TMP DP  RH WIND       PRES   REMARKS
BOZEMAN        CLOUDY    35  28  75 CALM      29.96R
DILLON         CLOUDY    29  21  72 SW12      29.99R WCI  19
W YELLOWSTONE  CLOUDY    27  25  93 SW6       30.00R WCI  20
ENNIS          CLOUDY    34  21  60 SE13G18   30.03R WCI  25
THREE FORKS      N/A     32  21  64 S3        29.95R
$$

MTZ009-010-012-014-046-048-049-054-211500-
EAST SLOPES AND CENTRAL MONTANA

CITY           SKY/WX    TMP DP  RH WIND       PRES   REMARKS
CUT BANK       CLEAR     36  26  67 W22       29.78R WCI  25
GREAT FALLS    CLEAR     36  24  62 SW15      29.82R WCI  27
MALMSTROM AFB  CLEAR     38  26  61 SW16G25   29.83R WCI  29
HELENA         CLOUDY    38  27  64 W3        29.93R
BOWMANS CRNR     N/A     33  24  69 SW13      29.83R WCI  24
CHOTEAU          N/A     37  19  48 SW8G16    29.82S WCI  31
FAIRFIELD        N/A     37  22  53 SW15      29.81R WCI  28
POWER            N/A     29  22  76 SW10      29.82R WCI  20
RAYNESFORD       N/A     40  22  48 SW23G29   29.83R
ULM              N/A     39  24  54 SW17      29.84R WCI  30
$$

MTZ011-013-016-021-045-047-050-051-211500-
NORTH CENTRAL MONTANA

CITY           SKY/WX    TMP DP  RH WIND       PRES   REMARKS
HAVRE          CLEAR     36  32  85 SW12      29.75R WCI  28
LEWISTOWN      CLEAR     35  23  61 W14       29.80R WCI  26
N BAR RANCH      N/A     39  19  45 W14G23    29.80R WCI  31
CHINOOK          N/A     41  36  81 W15G22    29.72R
DENTON         MOCLDY    41  23  49 W20       29.76R
GEYSER           N/A     32  23  71 W14       29.81R WCI  22
GRASS RANGE      N/A     39  22  51 W24       29.74R WCI  28
JUDITH GAP       N/A     36  19  49 W17G28    29.81R WCI  26
WINIFRED       MOCLDY    39  24  55 W13       29.77R WCI  32
$$

MTZ017>020-022>027-061-062-211500-
NORTHEAST MONTANA

CITY           SKY/WX    TMP DP  RH WIND       PRES   REMARKS
GLASGOW        CLOUDY    43  39  86 W24G32    29.63R
JORDAN           N/A     44  32  62 W30G43    29.70R
SIDNEY         CLOUDY    46  39  76 W24       29.59R
WOLF POINT     CLOUDY    46  40  79 W20G28    29.61R
MALTA          MOCLDY    41  37  87 W17G26    29.69R
PLENTYWOOD       N/A     46  37  71 W28G35    29.48R
POPLAR           N/A     43  39  87 W15       29.59R
$$

MTZ028>42-056>058-211500-
SOUTHCENTRAL AND SOUTHEAST MONTANA

CITY           SKY/WX    TMP DP  RH WIND       PRES   REMARKS
BAKER          PTCLDY    44  30  57 W22G29    29.67R
BILLINGS       PTCLDY    43  20  39 W21       29.83R
LIVINGSTON     MOCLDY    38  19  46 W17G24    29.89S WCI  28
MILES CITY     CLOUDY    46  31  55 W24G35    29.73R
BIG TIMBER     PTCLDY    37  19  48 W14G23    29.91R WCI  29
FORSYTH          N/A     45  25  45 W10G20    29.76R
HARLOWTON        N/A     36  21  55 W28G35    29.82R WCI  23
LAUREL           N/A     45  18  33 W26G36    29.84R
$$

REGIONAL REPORTS...DAKOTAS

CITY           SKY/WX    TMP DP  RH WIND       PRES   REMARKS
WILLISTON      MOCLDY    46  37  71 SW15      29.51R
MINOT          CLOUDY    49  39  68 W20G29    29.44R
DICKINSON      CLOUDY    47  35  63 W29G41    29.56R
BEACH          CLOUDY    45  34  65 W22G32    29.65R
CROSBY           N/A     45  39  81 W14       29.47R
TIOGA            N/A     43  41  93 W29       29.48S
WATFORD CITY   MOCLDY    46  39  76 W24G35    29.53S
BISMARCK       RAIN      48  43  82 W22G29    29.54R
GRAND FORKS    MOCLDY    61  57  87 SW12      29.39R
FARGO          CLOUDY    63  58  83 S16G30    29.42R
BUFFALO SD       N/A     44  27  51 W25       29.62R
RAPID CITY     CLOUDY    48  24  39 NW20G30   29.70R
$$

REGIONAL REPORTS...WYOMING/IDAHO/WASHINGTON

CITY           SKY/WX    TMP DP  RH WIND       PRES   REMARKS
GILLETTE       CLOUDY    39  17  41 NW13      29.81R WCI  31
SHERIDAN       CLEAR     37  17  44 NW9       29.84R WCI  30
BUFFALO WY     CLEAR     34  10  37 W6        29.84R WCI  29
CODY           PTCLDY    37  16  42 SW6       29.91R
YELLOWSTONE LA   N/A     24  20  84 VRB3      29.99S
IDAHO FALLS    CLOUDY    32  29  88 SW13      30.09R WCI  22
SALMON         CLOUDY    33  30  88 SE6       30.05S WCI  28
BOISE          MOCLDY    35  31  85 SE7       30.13S WCI  29
SPOKANE        MOCLDY    34  32  92 S9        29.96F WCI  27
$$

REGIONAL REPORTS...ALBERTA

CITY           SKY/WX    TMP DP  RH WIND       PRES   REMARKS
EDMONTON       CLEAR     27  27 100 W8        29.64R WCI  18
CALGARY        PTCLDY    28  23  80 S5        29.68R
LETHBRIDGE     CLEAR     41  28  60 W23G30    29.73R
MEDICINE HAT   PTCLDY    37  32  81 W7        29.70R
$$

REGIONAL REPORTS...SASKATCHEWAN

CITY           SKY/WX    TMP DP  RH WIND       PRES   REMARKS
SWIFT CURRENT  LGT RAIN  39  37  93 W28G36    29.54  WCI  28
REGINA         CLOUDY    43  39  87 W17G24    29.40R
SASKATOON      LGT RAIN  43  37  81 NW13      29.43R
$$




USA.gov is the U.S. government's official web portal to all federal, state and local government web resources and services.